Otar Kvilitaia

Scout - Lokomotivi
23 Apr 2028
Sonntag
Verarbeitung

Persönlichkeit

Anpassungsfähigkeit (9) Ehrgeiz (5) Kontroverse (14) Loyalität (3) Druck (12) Professionalität (15) Fairness (11) Temperament (10)

Profil

Trainerstil Demokratisch
Lizenz Nationale A
Entschlossenheit 5
Menschenführung 6
Motivation 10
Disziplin 2
Arbeitszufriedenheit
100%
Ermüdung
0%
Rolle Scout
Gehalt 14.9K p/W
Vertrag 14.03.2030

Leistung

Verhalten Gut
Trainingseffektivität
30%
Spielerentwicklung
45%
Verletzungsprävention
15%
Taktische Umsetzung
20%

Letzte Ereignisse

Nahm an einer Scouting-Besprechung teil 14T her
Nahm an einer Scouting-Besprechung teil 21T her
Nahm an einer Scouting-Besprechung teil 28T her
Nahm an einer Scouting-Besprechung teil 35T her
Geburtstag 35T her
Nahm an einer Scouting-Besprechung teil 42T her
Nahm an einer Scouting-Besprechung teil 49T her
Nahm an einer Scouting-Besprechung teil 56T her

Aktuell beobachtet

57
Spieler Verein Status Fähigkeit Vertrauen Beobachtet Zuletzt beobachtet Letzte Stimme
Georgi Tartov Kolkheti Aktiv 89 / 89 48% 1 10.01.2028 -
Lisandro Cabrera Maipú Verhandlung 100 / 116 40% 1 01.01.2028 -
Fabricio Rojas Khazar Aktiv 125 / 114 40% 1 01.01.2028 -
Sagir Arce Saburtalo Aktiv 102 / 98 40% 1 16.08.2027 -
Santiago Apa All Boys Aktiv 113 / 115 40% 1 16.08.2027 -
Davit Gotsiridze Kolkheti Aktiv 92 / 95 48% 1 09.08.2027 -
Dion Pereira Crawley Town Aktiv 100 / 94 40% 3 14.06.2027 -
Davit Kvaratskhelia Zugdidi Aktiv 77 / 88 44% 1 01.06.2027 -
Stanislav Biblyk Chaika Aktiv 92 / 92 40% 1 01.06.2027 -
Ramazan Gadjimuradov Chelyabinsk Aktiv 123 / 107 40% 2 31.05.2027 -
Mohau Nkota Al-Ettifaq Aktiv 115 / 123 40% 3 31.05.2027 -
Leandro Antunes Al-Riyadh Aktiv 117 / 115 40% 5 30.05.2027 -
Kamran Aliev SKA Khabarovsk Aktiv 115 / 110 40% 2 21.05.2027 -
Ruslan Apekov Torpedo Moscow Aktiv 93 / 112 40% 4 21.05.2027 -
Joe Snowdon Swindon Town Aktiv 87 / 77 40% 5 16.05.2027 -
Ekain Orobengoa Real Sociedad Aktiv 83 / 88 40% 1 15.05.2027 -
Ilja Safronov Rotor Aktiv 101 / 113 40% 1 15.05.2027 -
Alexis Coman Chaika Aktiv 95 / 90 40% 1 14.05.2027 -
Peter Olayinka Al-Wehda Aktiv 128 / 103 40% 1 08.05.2027 -
Zech Medley Fleetwood Town Aktiv 114 / 90 40% 1 04.05.2027 -
Nikita Demchenko Spartak Kostroma Aktiv 106 / 85 40% 1 03.05.2027 -
Abdulsalam Abdulsalam Ohod Aktiv 84 / 100 40% 1 28.04.2027 -
Tudor Mendel-Idowu Gubbio Aktiv 92 / 83 40% 2 24.04.2027 -
Aboubacar Doumbia Al-Orobah Aktiv 82 / 111 40% 1 24.04.2027 -
Vasily Cherov Ufa Aktiv 94 / 88 40% 2 22.04.2027 -
Iker Pozo Rodina Aktiv 117 / 124 40% 1 19.04.2027 -
Đorđe Pantelić Spartak Kostroma Aktiv 116 / 109 40% 1 19.04.2027 -
Rakan Al-Shamlan Al-Ta'ee Aktiv 69 / 94 40% 1 17.04.2027 -
Krasian Kolev Chernomorets Aktiv 100 / 92 40% 1 12.04.2027 -
Yakou Meïté Damac Aktiv 123 / 111 40% 2 09.04.2027 -
Khalid Al-Ghannam Al-Ettifaq Aktiv 123 / 110 40% 2 09.04.2027 -
Jonathan Okoronkwo Torpedo Moscow Aktiv 91 / 101 40% 1 08.04.2027 -
Darío Ramírez Real Sociedad Aktiv 72 / 107 40% 1 04.04.2027 -
Timofey Shipunov Ufa Aktiv 78 / 90 40% 2 03.04.2027 -
Paolo Yrizar Chernomorets Aktiv 104 / 92 40% 1 03.04.2027 -
Teddy Okou Al-Riyadh Aktiv 127 / 115 40% 1 02.04.2027 -
Nuri Abdokov Fakel Aktiv 108 / 109 40% 1 01.04.2027 -
Miloš Brnović Arsenal Tula Aktiv 99 / 110 40% 1 01.04.2027 -
Temirkan Sundukov Dinamo Makhachkala Aktiv 106 / 117 40% 1 29.03.2027 -
Maxime Sivis Orenburg Aktiv 103 / 116 40% 1 26.03.2027 -
Rashid Al-Salem Al-Mojzel Aktiv 105 / 98 40% 1 26.03.2027 -
Vyacheslav Grulev Nizhniy Novgorod Aktiv 120 / 119 40% 1 23.03.2027 -
Kirill Malyarov Shinnik Aktiv 100 / 97 40% 1 21.03.2027 -
Andrey Nikitin Neftekhimik Aktiv 89 / 95 40% 1 20.03.2027 -
Ilja Berkovskiy Torpedo Moscow Aktiv 94 / 102 40% 1 20.03.2027 -
Jon Eceizabarrena Real Sociedad Aktiv 107 / 103 40% 1 18.03.2027 -
George Edmundson Middlesbrough Aktiv 118 / 120 40% 1 13.09.2026 -
Jaïro Riedewald Sheffield United Aktiv 106 / 111 40% 1 13.09.2026 -
Tornike Jangidze Samtredia Aktiv 89 / 74 40% 1 10.09.2026 -
Beka Dartsmelia Saburtalo Aktiv 97 / 104 40% 1 09.09.2026 -
Gady Beyuku Blackburn Rovers Aktiv 95 / 130 40% 1 08.09.2026 -
Giorgi Akhaladze Kolkheti Aktiv 105 / 90 40% 1 08.09.2026 -
Tornike Grigalashvili Guria Aktiv 71 / 100 44% 1 31.08.2026 -
Gonzalo Tapia Palestino Aktiv 90 / 97 40% 1 05.08.2026 -
Jamal Lewis Preston Aktiv 99 / 129 40% 1 05.08.2026 -
David Agudelo Depor Aktiv 95 / 76 40% 1 01.08.2026 -
Tomás Ahumada Audax Italiano Aktiv 81 / 97 40% 1 01.08.2026 -